WA4ISB-1 Weather Reports


Display with metric or nautical units.
time (UTC)temp
F
wind
direction
speed
MPH
gust
MPH
rain 1hr
in
rain 24hr
in
rain mn
in
humidity
%
barometer
mb
20200328124850 71 180 5.0 7.0 0.00 0.00 0.00 87 1017.6
20200328124354 70 161 5.0 5.0 0.00 0.00 0.00 88 1017.5
20200328123852 70 181 2.0 5.0 0.00 0.00 0.00 89 1017.5
20200328123348 69 172 3.0 4.0 0.00 0.00 0.00 89 1017.5
20200328122848 69 180 3.0 5.0 0.00 0.00 0.00 90 1017.4
20200328122521 69 174 1.0 3.0 0.00 0.00 0.00 90 1017.4
20200328121846 69 136 1.0 4.0 0.00 0.00 0.00 90 1017.4
20200328121354 68 147 1.0 4.0 0.00 0.00 0.00 91 1017.3
20200328120846 68 160 0.0 4.0 0.00 0.00 0.00 91 1017.2
20200328120346 68 167 2.0 3.0 0.00 0.00 0.00 91 1017.1
20200328115848 68 146 1.0 2.0 0.00 0.00 0.00 91 1017.0
20200328115345 68 136 0.0 3.0 0.00 0.00 0.00 91 1017.0
20200328114846 68 109 0.0 2.0 0.00 0.00 0.00 91 1016.9
20200328114344 68 194 1.0 1.0 0.00 0.00 0.00 91 1016.9
20200328113344 68 122 1.0 3.0 0.00 0.00 0.00 91 1016.7
20200328112845 68 143 0.0 0.0 0.00 0.00 0.00 91 1016.6
20200328112344 68 160 0.0 5.0 0.00 0.00 0.00 91 1016.5
20200328111843 68 168 0.0 0.0 0.00 0.00 0.00 91 1016.5
20200328111343 68 168 0.0 0.0 0.00 0.00 0.00 91 1016.5
20200328110845 68 168 0.0 2.0 0.00 0.00 0.00 91 1016.5
20200328110342 68 164 0.0 2.0 0.00 0.00 0.00 91 1016.5
20200328110042 68 154 0.0 2.0 0.00 0.00 0.00 91 1016.5
20200328110000 68 154 0.0 2.0 0.00 0.00 0.00 91 1016.5
20200328105342 68 106 0.0 0.0 0.00 0.00 0.00 90 1016.4
20200328104841 68 106 0.0 1.0 0.00 0.00 0.00 91 1016.4
20200328104342 68 174 1.0 2.0 0.00 0.00 0.00 91 1016.4
20200328103843 68 126 0.0 1.0 0.00 0.00 0.00 90 1016.4
20200328103342 68 153 0.0 0.0 0.00 0.00 0.00 90 1016.3
20200328102841 68 160 0.0 1.0 0.00 0.00 0.00 90 1016.3
20200328102341 69 81 0.0 1.0 0.00 0.00 0.00 90 1016.3
20200328101841 69 132 0.0 2.0 0.00 0.00 0.00 90 1016.2
20200328101339 68 130 1.0 2.0 0.00 0.00 0.00 90 1016.2
20200328100839 68 171 1.0 2.0 0.00 0.00 0.00 90 1016.2
20200328100340 68 126 0.0 2.0 0.00 0.00 0.00 90 1016.2
20200328095838 68 185 0.0 0.0 0.00 0.00 0.00 90 1016.1
20200328095339 69 185 0.0 0.0 0.00 0.00 0.00 90 1016.2
20200328094838 69 151 0.0 0.0 0.00 0.00 0.00 90 1016.0
20200328094338 69 151 0.0 0.0 0.00 0.00 0.00 90 1016.0
20200328093838 69 151 0.0 2.0 0.00 0.00 0.00 90 1016.0
20200328093438 69 172 0.0 1.0 0.00 0.00 0.00 90 1016.0
20200328092836 69 156 0.0 0.0 0.00 0.00 0.00 90 1015.9
20200328092337 69 156 0.0 2.0 0.00 0.00 0.00 90 1016.0
20200328091336 69 184 1.0 2.0 0.00 0.00 0.00 89 1016.0
20200328090837 69 164 2.0 3.0 0.00 0.00 0.00 89 1015.9
20200328090550 69 106 0.0 1.0 0.00 0.00 0.00 89 1015.9
20200328090335 69 106 0.0 1.0 0.00 0.00 0.00 89 1015.9
20200328085835 69 154 1.0 2.0 0.00 0.00 0.00 89 1015.9
20200328085336 68 163 0.0 0.0 0.00 0.00 0.00 89 1015.9
20200328085104 68 163 0.0 0.0 0.00 0.00 0.00 89 1015.8
20200328084834 68 163 0.0 0.0 0.00 0.00 0.00 89 1015.9
20200328084339 68 163 0.0 0.0 0.00 0.00 0.00 89 1015.8
20200328084313 69 163 0.0 0.0 0.00 0.00 0.00 88 1015.9
20200328083835 68 163 0.0 0.0 0.00 0.00 0.00 88 1015.8
20200328083336 68 163 0.0 0.0 0.00 0.00 0.00 89 1015.8
20200328082834 69 163 0.0 0.0 0.00 0.00 0.00 88 1015.8
20200328082336 69 163 0.0 0.0 0.00 0.00 0.00 88 1015.8
20200328081832 69 163 0.0 0.0 0.00 0.00 0.00 88 1015.9
20200328081334 69 163 0.0 0.0 0.00 0.00 0.00 88 1015.9
20200328080834 69 163 0.0 0.0 0.00 0.00 0.00 88 1015.9
20200328080333 69 163 0.0 0.0 0.00 0.00 0.00 88 1015.8
20200328075832 69 163 0.0 0.0 0.00 0.00 0.00 88 1015.9
20200328075333 69 163 0.0 0.0 0.00 0.00 0.00 88 1015.9
20200328074833 69 163 0.0 0.0 0.00 0.00 0.00 88 1015.9
20200328074457 70 163 0.0 0.0 0.00 0.00 0.00 87 1016.0
20200328074336 69 163 0.0 0.0 0.00 0.00 0.00 87 1015.8
20200328073833 69 163 0.0 0.0 0.00 0.00 0.00 87 1015.9
20200328073334 70 163 0.0 0.0 0.00 0.00 0.00 87 1015.9
20200328072829 70 163 0.0 0.0 0.00 0.00 0.00 87 1016.0
20200328072335 70 163 0.0 0.0 0.00 0.00 0.00 87 1015.9
20200328071830 70 163 0.0 0.0 0.00 0.00 0.00 87 1016.0
20200328071332 70 163 0.0 0.0 0.00 0.00 0.00 87 1016.1
20200328070829 70 163 0.0 0.0 0.00 0.00 0.00 87 1016.1
20200328064829 70 163 0.0 0.0 0.00 0.00 0.00 86 1016.3
20200328064329 70 163 0.0 0.0 0.00 0.00 0.00 86 1016.3
20200328063828 70 163 0.0 0.0 0.00 0.00 0.00 86 1016.3
20200328063327 70 163 0.0 0.0 0.00 0.00 0.00 86 1016.3
20200328062827 70 163 0.0 0.0 0.00 0.00 0.00 85 1016.4
20200328062327 70 163 0.0 0.0 0.00 0.00 0.00 85 1016.5
20200328061828 70 163 0.0 0.0 0.00 0.00 0.00 85 1016.5
20200328061326 71 163 0.0 0.0 0.00 0.00 0.00 85 1016.6
20200328060829 71 163 0.0 0.0 0.00 0.00 0.00 85 1016.7
20200328060453 71 163 0.0 0.0 0.00 0.00 0.00 85 1016.7
20200328060335 71 163 0.0 0.0 0.00 0.00 0.00 85 1016.7
20200328055824 71 163 0.0 1.0 0.00 0.00 0.00 85 1016.7
20200328055326 71 199 1.0 1.0 0.00 0.00 0.00 85 1016.7
20200328054824 71 172 0.0 0.0 0.00 0.00 0.00 84 1016.8
20200328054324 71 172 0.0 0.0 0.00 0.00 0.00 83 1016.9
20200328053823 71 172 0.0 0.0 0.00 0.00 0.00 83 1016.8
20200328053319 72 172 0.0 0.0 0.00 0.00 0.00 83 1017.0
20200328052823 72 172 0.0 0.0 0.00 0.00 0.00 83 1017.0
20200328052323 72 172 0.0 0.0 0.00 0.00 0.00 82 1017.0
20200328052006 72 172 0.0 0.0 0.00 0.00 0.00 82 1017.2
20200328051823 72 172 0.0 0.0 0.00 0.00 0.00 82 1017.1
20200328051322 72 172 0.0 0.0 0.00 0.00 0.00 82 1017.2
20200328050821 72 172 0.0 0.0 0.00 0.00 0.00 82 1017.2
20200328050321 72 172 0.0 0.0 0.00 0.00 0.00 81 1017.2
20200328045822 72 172 0.0 0.0 0.00 0.00 0.00 81 1017.2
20200328045553 73 172 0.0 0.0 0.00 0.00 0.00 81 1017.4
20200328045328 72 172 0.0 0.0 0.00 0.00 0.00 81 1017.3
20200328044821 73 172 0.0 0.0 0.00 0.00 0.00 81 1017.3
20200328044321 73 172 0.0 0.0 0.00 0.00 0.00 81 1017.4
20200328043821 73 172 0.0 0.0 0.00 0.00 0.00 81 1017.4
20200328043319 73 172 0.0 0.0 0.00 0.00 0.00 80 1017.3
20200328042819 73 172 0.0 0.0 0.00 0.00 0.00 80 1017.3
20200328042319 73 172 0.0 1.0 0.00 0.00 0.00 80 1017.3
20200328041818 73 198 1.0 1.0 0.00 0.00 0.00 80 1017.3
20200328040949 73 198 1.0 1.0 0.00 0.00 0.00 79 1017.4
20200328040820 73 198 1.0 1.0 0.00 0.00 0.00 79 1017.4
20200328040327 73 330 0.0 0.0 0.00 0.00 0.00 79 1017.4
20200328035818 73 330 0.0 0.0 0.00 0.00 0.00 78 1017.4
20200328035318 73 330 0.0 0.0 0.00 0.00 0.00 78 1017.4
20200328035256 73 330 0.0 0.0 0.00 0.00 0.00 78 1017.3
20200328034817 73 330 0.0 0.0 0.00 0.00 0.00 78 1017.3
20200328034316 73 330 0.0 0.0 0.00 0.00 0.00 78 1017.3
20200328033316 74 330 0.0 0.0 0.00 0.00 0.00 77 1017.2
20200328032815 74 330 0.0 0.0 0.00 0.00 0.00 77 1017.2
20200328031316 74 330 0.0 0.0 0.00 0.00 0.00 77 1017.1
20200328030818 74 330 0.0 0.0 0.00 0.00 0.00 76 1017.0
20200328030316 74 330 0.0 0.0 0.00 0.00 0.00 76 1017.1
20200328025818 74 330 0.0 0.0 0.00 0.00 0.00 76 1017.1
20200328025316 74 330 0.0 0.0 0.00 0.00 0.00 75 1017.1
20200328024815 75 330 0.0 0.0 0.00 0.00 0.00 75 1017.0
20200328024316 75 330 0.0 0.0 0.00 0.00 0.00 75 1016.9
20200328023813 75 330 0.0 0.0 0.00 0.00 0.00 75 1017.0
20200328023313 75 330 0.0 0.0 0.00 0.00 0.00 75 1016.9
20200328022313 75 330 0.0 0.0 0.00 0.00 0.00 74 1016.9
20200328021813 75 330 0.0 0.0 0.00 0.00 0.00 74 1016.8
20200328021313 76 330 0.0 0.0 0.00 0.00 0.00 73 1016.8
20200328020310 76 330 0.0 0.0 0.00 0.00 0.00 72 1016.7
20200328015810 76 330 0.0 0.0 0.00 0.00 0.00 71 1016.6
20200328015310 76 330 0.0 0.0 0.00 0.00 0.00 71 1016.6
20200328014810 76 330 0.0 0.0 0.00 0.00 0.00 71 1016.5
20200328014459 76 330 0.0 0.0 0.00 0.00 0.00 70 1016.4
20200328014310 76 330 0.0 0.0 0.00 0.00 0.00 70 1016.4
20200328013812 77 330 0.0 0.0 0.00 0.00 0.00 70 1016.5
20200328013311 77 330 0.0 0.0 0.00 0.00 0.00 69 1016.4
20200328012808 77 330 0.0 0.0 0.00 0.00 0.00 68 1016.3
20200328012310 77 330 0.0 0.0 0.00 0.00 0.00 68 1016.2
20200328011811 77 330 0.0 0.0 0.00 0.00 0.00 68 1016.2
20200328011308 77 330 0.0 2.0 0.00 0.00 0.00 68 1016.2
20200328010809 77 229 0.0 0.0 0.00 0.00 0.00 67 1016.1
20200328010307 78 229 0.0 0.0 0.00 0.00 0.00 67 1016.1
20200328005808 78 229 0.0 3.0 0.00 0.00 0.00 67 1016.1
20200328005309 78 268 0.0 0.0 0.00 0.00 0.00 67 1016.0
20200328004307 78 326 0.0 0.0 0.00 0.00 0.00 66 1016.0
20200328003807 78 326 0.0 0.0 0.00 0.00 0.00 66 1015.8
20200328003347 78 326 0.0 2.0 0.00 0.00 0.00 66 1015.9
20200328003305 78 326 0.0 2.0 0.00 0.00 0.00 66 1015.9
20200328002805 79 187 0.0 4.0 0.00 0.00 0.00 65 1015.8
20200328002306 79 296 2.0 3.0 0.00 0.00 0.00 65 1015.7
20200328001805 79 215 0.0 3.0 0.00 0.00 0.00 65 1015.7
20200328001304 79 315 2.0 2.0 0.00 0.00 0.00 65 1015.7
20200328000807 79 302 1.0 4.0 0.00 0.00 0.00 65 1015.6
20200328000303 79 305 0.0 4.0 0.00 0.00 0.00 65 1015.6
20200327235804 79 299 1.0 4.0 0.00 0.00 0.00 64 1015.6
20200327235305 80 338 0.0 2.0 0.00 0.00 0.00 64 1015.6
20200327234804 80 285 0.0 3.0 0.00 0.00 0.00 64 1015.6
20200327233804 80 278 1.0 3.0 0.00 0.00 0.00 62 1015.6
20200327233303 80 271 0.0 2.0 0.00 0.00 0.00 61 1015.5
20200327232802 81 198 0.0 5.0 0.00 0.00 0.00 60 1015.5
20200327232301 81 285 1.0 5.0 0.00 0.00 0.00 59 1015.5
20200327231801 81 320 2.0 3.0 0.00 0.00 0.00 59 1015.4
20200327231300 81 315 1.0 4.0 0.00 0.00 0.00 57 1015.3
20200327230801 81 310 3.0 4.0 0.00 0.00 0.00 57 1015.3
20200327230300 81 267 1.0 5.0 0.00 0.00 0.00 57 1015.4
20200327225800 82 316 1.0 2.0 0.00 0.00 0.00 56 1015.3
20200327225340 82 316 0.0 6.0 0.00 0.00 0.00 56 1015.2
20200327225259 82 316 0.0 6.0 0.00 0.00 0.00 56 1015.2
20200327224801 82 316 3.0 4.0 0.00 0.00 0.00 55 1015.2
20200327224259 82 306 3.0 3.0 0.00 0.00 0.00 54 1015.2
20200327223758 82 246 0.0 6.0 0.00 0.00 0.00 52 1015.2
20200327223259 83 270 0.0 5.0 0.00 0.00 0.00 51 1015.3
20200327222835 83 271 0.0 7.0 0.00 0.00 0.00 52 1015.3
20200327222758 83 271 0.0 7.0 0.00 0.00 0.00 52 1015.3
20200327221758 84 299 8.0 8.0 0.00 0.00 0.00 49 1015.1
20200327221257 84 268 1.0 5.0 0.00 0.00 0.00 47 1015.1
20200327220757 84 344 0.0 5.0 0.00 0.00 0.00 45 1015.1
20200327215756 85 330 1.0 4.0 0.00 0.00 0.00 43 1015.0
20200327214755 85 220 0.0 5.0 0.00 0.00 0.00 42 1015.0
20200327214259 85 279 0.0 5.0 0.00 0.00 0.00 41 1015.0
20200327213755 85 277 0.0 8.0 0.00 0.00 0.00 40 1015.0
20200327213255 85 288 2.0 7.0 0.00 0.00 0.00 40 1014.9
20200327212754 85 213 1.0 6.0 0.00 0.00 0.00 40 1014.9
20200327211828 85 192 1.0 3.0 0.00 0.00 0.00 40 1014.9
20200327211754 85 192 1.0 3.0 0.00 0.00 0.00 40 1014.9
20200327211254 85 306 3.0 7.0 0.00 0.00 0.00 40 1014.9
20200327210753 85 279 0.0 8.0 0.00 0.00 0.00 39 1014.9
20200327210253 86 243 1.0 7.0 0.00 0.00 0.00 38 1014.9
20200327205753 86 291 1.0 1.0 0.00 0.00 0.00 40 1014.9
20200327205252 86 284 0.0 3.0 0.00 0.00 0.00 40 1015.0
20200327204752 86 247 1.0 3.0 0.00 0.00 0.00 40 1014.9
20200327204254 86 195 1.0 3.0 0.00 0.00 0.00 40 1014.9
20200327203752 86 284 1.0 8.0 0.00 0.00 0.00 38 1015.0
20200327203252 86 178 1.0 6.0 0.00 0.00 0.00 40 1015.0
20200327202752 86 250 1.0 6.0 0.00 0.00 0.00 39 1014.9
20200327201752 86 229 0.0 2.0 0.00 0.00 0.00 41 1015.0
20200327201251 86 194 0.0 7.0 0.00 0.00 0.00 41 1015.0
20200327200751 86 329 2.0 5.0 0.00 0.00 0.00 40 1015.0
20200327200251 86 333 3.0 6.0 0.00 0.00 0.00 40 1015.1
20200327195750 86 254 2.0 8.0 0.00 0.00 0.00 40 1015.1
20200327192825 86 251 2.0 9.0 0.00 0.00 0.00 42 1015.2
20200327192747 86 251 2.0 9.0 0.00 0.00 0.00 42 1015.2
20200327191747 86 177 1.0 3.0 0.00 0.00 0.00 43 1015.2
20200327191423 87 217 2.0 4.0 0.00 0.00 0.00 42 1015.4
20200327191247 86 310 2.0 8.0 0.00 0.00 0.00 43 1015.2
20200327190746 86 282 1.0 7.0 0.00 0.00 0.00 43 1015.3
20200327190247 86 195 1.0 7.0 0.00 0.00 0.00 41 1015.4
20200327185745 87 217 2.0 4.0 0.00 0.00 0.00 42 1015.4
20200327185246 87 275 2.0 7.0 0.00 0.00 0.00 41 1015.5
20200327184745 86 338 1.0 5.0 0.00 0.00 0.00 44 1015.6
20200327184245 86 147 0.0 9.0 0.00 0.00 0.00 43 1015.6
20200327183744 87 306 3.0 6.0 0.00 0.00 0.00 43 1015.6
20200327183244 86 154 2.0 10.0 0.00 0.00 0.00 42 1015.7
20200327182828 87 262 1.0 6.0 0.00 0.00 0.00 43 1015.8
20200327182744 87 262 1.0 6.0 0.00 0.00 0.00 43 1015.8
20200327182244 86 219 3.0 8.0 0.00 0.00 0.00 44 1015.8
20200327181743 86 149 0.0 7.0 0.00 0.00 0.00 44 1015.9
20200327181243 87 247 1.0 4.0 0.00 0.00 0.00 43 1015.9
20200327180743 87 0 3.0 6.0 0.00 0.00 0.00 44 1015.9
20200327180242 87 219 1.0 8.0 0.00 0.00 0.00 44 1015.9
20200327175742 88 240 1.0 9.0 0.00 0.00 0.00 45 1015.9
20200327175242 88 323 1.0 4.0 0.00 0.00 0.00 46 1016.0
20200327174742 88 326 1.0 2.0 0.00 0.00 0.00 45 1016.0
20200327174241 88 277 0.0 6.0 0.00 0.00 0.00 46 1016.0
20200327173741 88 320 0.0 6.0 0.00 0.00 0.00 46 1016.1
20200327173241 87 291 3.0 6.0 0.00 0.00 0.00 45 1016.2
20200327172740 87 265 2.0 4.0 0.00 0.00 0.00 47 1016.2
20200327172240 87 37 0.0 2.0 0.00 0.00 0.00 49 1016.3
20200327171740 86 202 0.0 8.0 0.00 0.00 0.00 49 1016.3
20200327171239 87 240 0.0 6.0 0.00 0.00 0.00 45 1016.3
20200327170739 87 198 6.0 7.0 0.00 0.00 0.00 44 1016.4
20200327170241 86 268 1.0 6.0 0.00 0.00 0.00 46 1016.4
20200327165738 86 205 6.0 10.0 0.00 0.00 0.00 46 1016.4
20200327164740 86 189 2.0 5.0 0.00 0.00 0.00 46 1016.5
20200327164239 85 140 0.0 8.0 0.00 0.00 0.00 46 1016.5
20200327163739 85 203 0.0 7.0 0.00 0.00 0.00 49 1016.5
20200327163238 85 135 3.0 7.0 0.00 0.00 0.00 51 1016.5
20200327162737 85 129 1.0 7.0 0.00 0.00 0.00 52 1016.4
20200327162340 84 219 6.0 7.0 0.00 0.00 0.00 54 1016.4
20200327162236 84 219 6.0 7.0 0.00 0.00 0.00 54 1016.4
20200327161736 83 201 2.0 9.0 0.00 0.00 0.00 54 1016.5
20200327161236 83 202 3.0 6.0 0.00 0.00 0.00 53 1016.5
20200327160736 83 195 4.0 4.0 0.00 0.00 0.00 58 1016.5
20200327160236 83 104 2.0 6.0 0.00 0.00 0.00 60 1016.6
20200327155735 82 174 5.0 5.0 0.00 0.00 0.00 61 1016.6
20200327155315 81 210 1.0 2.0 0.00 0.00 0.00 65 1016.5
20200327155235 81 210 1.0 2.0 0.00 0.00 0.00 65 1016.5
20200327155016 77 111 2.0 5.0 0.00 0.00 0.00 78 1016.6
20200327154735 81 170 0.0 6.0 0.00 0.00 0.00 65 1016.6
20200327154323 81 188 4.0 6.0 0.00 0.00 0.00 64 1016.5
20200327154234 81 188 4.0 6.0 0.00 0.00 0.00 64 1016.5
20200327153734 80 12 1.0 3.0 0.00 0.00 0.00 67 1016.5
20200327153234 80 61 2.0 6.0 0.00 0.00 0.00 70 1016.6
20200327152855 79 139 1.0 4.0 0.00 0.00 0.00 72 1016.6
20200327152733 79 139 1.0 4.0 0.00 0.00 0.00 72 1016.6
20200327152235 78 37 3.0 3.0 0.00 0.00 0.00 74 1016.6
20200327151733 77 111 2.0 5.0 0.00 0.00 0.00 78 1016.6
20200327151400 76 42 2.0 6.0 0.00 0.00 0.00 80 1016.7
20200327151232 76 42 2.0 6.0 0.00 0.00 0.00 80 1016.7
20200327150732 76 175 4.0 6.0 0.00 0.00 0.00 81 1016.6
20200327150232 75 52 3.0 5.0 0.00 0.00 0.00 85 1016.7
20200327145731 74 49 1.0 4.0 0.00 0.00 0.00 87 1016.6
20200327145231 73 191 2.0 5.0 0.00 0.00 0.00 88 1016.6
20200327144731 72 174 4.0 6.0 0.00 0.00 0.00 89 1016.5
20200327144233 72 348 2.0 5.0 0.00 0.00 0.00 90 1016.6
20200327143732 71 104 3.0 5.0 0.00 0.00 0.00 92 1016.5
20200327143231 71 126 3.0 5.0 0.00 0.00 0.00 92 1016.6
20200327142730 71 146 1.0 6.0 0.00 0.00 0.00 92 1016.6
20200327142230 71 198 5.0 8.0 0.00 0.00 0.00 92 1016.5
20200327141729 70 61 3.0 3.0 0.00 0.00 0.00 93 1016.5
20200327141229 70 210 1.0 5.0 0.00 0.00 0.00 93 1016.5
20200327140733 70 209 0.0 5.0 0.00 0.00 0.00 93 1016.5
20200327140232 70 168 2.0 5.0 0.00 0.00 0.00 93 1016.6
20200327135729 70 168 5.0 5.0 0.00 0.00 0.00 93 1016.5
20200327135228 70 161 5.0 5.0 0.00 0.00 0.00 93 1016.4
20200327134727 70 182 4.0 5.0 0.00 0.00 0.00 93 1016.3
20200327134227 70 181 4.0 4.0 0.00 0.00 0.00 93 1016.2
20200327133727 70 126 1.0 3.0 0.00 0.00 0.00 93 1016.2
20200327133227 70 45 1.0 3.0 0.00 0.00 0.00 93 1016.2
20200327132727 69 71 0.0 3.0 0.00 0.00 0.00 93 1016.1
20200327132228 69 184 2.0 4.0 0.00 0.00 0.00 93 1016.1
20200327131726 69 164 4.0 5.0 0.00 0.00 0.00 93 1016.1
20200327131225 69 153 2.0 4.0 0.00 0.00 0.00 92 1016.1
20200327130727 69 160 1.0 4.0 0.00 0.00 0.00 92 1016.1
20200327130225 70 132 3.0 3.0 0.00 0.00 0.00 92 1016.1
20200327125724 70 153 0.0 1.0 0.00 0.00 0.00 92 1016.1